Location: Esp�s Alto
(42.4476°N, 0.5876°E)
Time: 07:33:11
(UTC+00:00)

Cosmos 2278 Rocket - Pass Details

Date: 22 October 2019
Orbit: 840 x 847 km, 71.0° (Epoch: 16 November)

Event Time Altitude Azimuth Distance (km) Brightness Sun altitude
Exits shadow 03:40:05 34° 158° (SSE) 1,360 3.3 -29.7°
Drops below altitude 10° 03:43:08 10° 158° (SSE) 2,457 4.7 -29.2°
Sets 03:45:34 0° 158° (SSE) 3,387 5.5 -28.8°
